Location: Unspecified
(0.0000°N, 0.0000°E)
Time: 01:16:49
(UTC+00:00)

USA 125 - Pass Details

Date: 25 May 2026
Orbit: 363 x 39930 km, 64.0° (Epoch: 9 October)

Event Time Altitude Azimuth Distance (km) Brightness Sun altitude
Rises 18:18:11 0° 344° (NNW) 12,989 ? -4.9°
Reaches altitude 10° 18:34:31 10° 358° (N) 7,002 ? -8.7°
Maximum altitude 18:44:28 19° 37° (NE) 3,091 ? -11.1°
Enters shadow 18:48:19 11° 81° (E) 2,500 ? -12.0°
